Simultaneous Nadir Overpasses (SNOs) Predictions

Prediction of SNOs between METOP-B and NOAA-19 Satellite Orbit:

Table of predicted SNOs for the next 14.0 days since TLE Epoch: 5/10/2013
Index Date (METOP-B) Time (METOP-B) Lat,Lon (METOP-B) SZA (METOP-B ) Date (NOAA-19) Time (NOAA-19) Lat,Lon (NOAA-19) SZA (NOAA-19 ) Distance(km) Time Diff (sec)
1 05/14/2013 22:11:55 73.31,-159.53 54.48 05/14/2013 22:10:46 73.30,-159.53 54.47 1.73 69
2 05/14/2013 23:02:37 -73.30, 7.77 125.55 05/14/2013 23:01:42 -73.31, 7.71 125.53 2.17 55
3 05/14/2013 23:53:18 73.24, 174.98 54.40 05/14/2013 23:52:50 73.27, 175.02 54.43 2.95 28
4 05/15/2013 00:44:00 -73.23, -17.73 125.63 05/15/2013 00:43:45 -73.23, -17.63 125.63 3.15 15
5 05/15/2013 01:34:40 73.22, 149.60 54.36 05/15/2013 01:34:54 73.24, 149.57 54.38 1.80 14
6 05/15/2013 02:25:22 -73.21, -43.11 125.66 05/15/2013 02:25:49 -73.20, -43.08 125.68 1.31 27
7 05/15/2013 03:16:02 73.21, 124.22 54.33 05/15/2013 03:16:58 73.21, 124.12 54.33 3.32 56
8 05/15/2013 04:06:44 -73.19, -68.49 125.70 05/15/2013 04:07:53 -73.17, -68.53 125.72 2.63 69




NCC Satellite Simultaneous Nadir Overpasses (SNOs) Prediction Service
